contact:dominique.lefevre@mio.osupytheas.fr, maurice.libes@osupytheas.fr, didier.mallarino@osupytheas.fr
Project:EMSO http://www.emso-fr.org/EMSO-France
Depth: 2436.0 m
Title:EMSO Ligure Ouest : Data MII capteur MICROCAT
DateTime_Computer,Latitude,Longitude,Temperature,Conductivity,Pressure,DateTime_Instrument
DateTime_Computer,Latitude,Longitude,degC,S m-1,dbar,DateTime_Instrument
2017-10-06T00:01:05Z,42.805,6.029,13.2940,4.59967,2471.806,2017-10-06T02:02:28Z
2017-10-06T00:02:39Z,42.805,6.029,13.2941,4.59966,2471.821,2017-10-06T02:04:03Z
2017-10-06T00:04:14Z,42.805,6.029,13.2941,4.59973,2471.821,2017-10-06T02:05:38Z
2017-10-06T00:05:49Z,42.805,6.029,13.2941,4.59978,2471.799,2017-10-06T02:07:13Z
2017-10-06T00:07:24Z,42.805,6.029,13.2934,4.59962,2471.821,2017-10-06T02:08:48Z
2017-10-06T00:08:59Z,42.805,6.029,13.2938,4.59965,2471.844,2017-10-06T02:10:23Z
2017-10-06T00:10:34Z,42.805,6.029,13.2941,4.59962,2471.799,2017-10-06T02:11:57Z
2017-10-06T00:12:08Z,42.805,6.029,13.2943,4.59964,2471.806,2017-10-06T02:13:32Z
2017-10-06T00:13:43Z,42.805,6.029,13.2938,4.59964,2471.761,2017-10-06T02:15:07Z
2017-10-06T00:15:18Z,42.805,6.029,13.2936,4.59968,2471.799,2017-10-06T02:16:42Z
2017-10-06T00:16:53Z,42.805,6.029,13.2943,4.59968,2471.799,2017-10-06T02:18:17Z
2017-10-06T00:18:28Z,42.805,6.029,13.2936,4.59961,2471.806,2017-10-06T02:19:52Z
2017-10-06T00:20:03Z,42.805,6.029,13.2939,4.59961,2471.784,2017-10-06T02:21:26Z
2017-10-06T00:21:37Z,42.805,6.029,13.2943,4.59962,2471.799,2017-10-06T02:23:01Z
2017-10-06T00:23:12Z,42.805,6.029,13.2941,4.59961,2471.776,2017-10-06T02:24:36Z
2017-10-06T00:24:47Z,42.805,6.029,13.2939,4.59962,2471.799,2017-10-06T02:26:11Z
2017-10-06T00:26:22Z,42.805,6.029,13.2935,4.59964,2471.799,2017-10-06T02:27:46Z
2017-10-06T00:27:57Z,42.805,6.029,13.2941,4.59964,2471.784,2017-10-06T02:29:21Z
2017-10-06T00:29:32Z,42.805,6.029,13.2941,4.59980,2471.761,2017-10-06T02:30:55Z
2017-10-06T00:31:06Z,42.805,6.029,13.2942,4.59967,2471.799,2017-10-06T02:32:30Z
2017-10-06T00:32:41Z,42.805,6.029,13.2939,4.59976,2471.784,2017-10-06T02:34:05Z
2017-10-06T00:34:16Z,42.805,6.029,13.2939,4.59970,2471.761,2017-10-06T02:35:40Z
2017-10-06T00:35:51Z,42.805,6.029,13.2944,4.59961,2471.761,2017-10-06T02:37:15Z
2017-10-06T00:37:26Z,42.805,6.029,13.2940,4.59962,2471.799,2017-10-06T02:38:50Z
2017-10-06T00:39:01Z,42.805,6.029,13.2943,4.59961,2471.799,2017-10-06T02:40:24Z
2017-10-06T00:40:35Z,42.805,6.029,13.2946,4.59963,2471.799,2017-10-06T02:41:59Z
2017-10-06T00:42:10Z,42.805,6.029,13.2938,4.59963,2471.761,2017-10-06T02:43:34Z
2017-10-06T00:43:45Z,42.805,6.029,13.2947,4.59967,2471.776,2017-10-06T02:45:09Z
2017-10-06T00:45:20Z,42.805,6.029,13.2945,4.59967,2471.776,2017-10-06T02:46:44Z
2017-10-06T00:46:55Z,42.805,6.029,13.2945,4.59965,2471.776,2017-10-06T02:48:19Z
2017-10-06T00:48:30Z,42.805,6.029,13.2944,4.59966,2471.776,2017-10-06T02:49:53Z
2017-10-06T00:50:04Z,42.805,6.029,13.2944,4.59966,2471.776,2017-10-06T02:51:28Z
2017-10-06T00:51:39Z,42.805,6.029,13.2943,4.59965,2471.784,2017-10-06T02:53:03Z
2017-10-06T00:53:14Z,42.805,6.029,13.2943,4.59968,2471.753,2017-10-06T02:54:38Z
2017-10-06T00:54:49Z,42.805,6.029,13.2947,4.59970,2471.776,2017-10-06T02:56:13Z
2017-10-06T00:56:24Z,42.805,6.029,13.2941,4.59970,2471.776,2017-10-06T02:57:48Z
2017-10-06T00:57:59Z,42.805,6.029,13.2939,4.59964,2471.776,2017-10-06T02:59:22Z
2017-10-06T00:59:33Z,42.805,6.029,13.2939,4.59965,2471.761,2017-10-06T03:00:57Z
2017-10-06T01:01:08Z,42.805,6.029,13.2939,4.59982,2471.739,2017-10-06T03:02:32Z
2017-10-06T01:02:43Z,42.805,6.029,13.2942,4.59967,2471.739,2017-10-06T03:04:07Z
2017-10-06T01:04:18Z,42.805,6.029,13.2950,4.59967,2471.776,2017-10-06T03:05:42Z
2017-10-06T01:05:53Z,42.805,6.029,13.2939,4.59968,2471.761,2017-10-06T03:07:17Z
2017-10-06T01:07:28Z,42.805,6.029,13.2942,4.59966,2471.776,2017-10-06T03:08:51Z
2017-10-06T01:09:02Z,42.805,6.029,13.2939,4.59969,2471.776,2017-10-06T03:10:26Z
2017-10-06T01:10:37Z,42.805,6.029,13.2939,4.59967,2471.739,2017-10-06T03:12:01Z
2017-10-06T01:12:12Z,42.805,6.029,13.2943,4.59964,2471.776,2017-10-06T03:13:36Z
2017-10-06T01:13:47Z,42.805,6.029,13.2942,4.59976,2471.776,2017-10-06T03:15:11Z
2017-10-06T01:15:22Z,42.805,6.029,13.2937,4.59972,2471.753,2017-10-06T03:16:46Z
2017-10-06T01:16:57Z,42.805,6.029,13.2940,4.59968,2471.753,2017-10-06T03:18:20Z
2017-10-06T01:18:31Z,42.805,6.029,13.2942,4.59962,2471.739,2017-10-06T03:19:55Z
2017-10-06T01:20:06Z,42.805,6.029,13.2945,4.59961,2471.731,2017-10-06T03:21:30Z
2017-10-06T01:21:41Z,42.805,6.029,13.2950,4.59962,2471.753,2017-10-06T03:23:05Z
2017-10-06T01:23:16Z,42.805,6.029,13.2956,4.59961,2471.753,2017-10-06T03:24:40Z
2017-10-06T01:24:51Z,42.805,6.029,13.2959,4.59961,2471.753,2017-10-06T03:26:15Z
2017-10-06T01:26:26Z,42.805,6.029,13.2944,4.59961,2471.753,2017-10-06T03:27:49Z
2017-10-06T01:28:00Z,42.805,6.029,13.2948,4.59966,2471.753,2017-10-06T03:29:24Z
2017-10-06T01:29:35Z,42.805,6.029,13.2950,4.59969,2471.731,2017-10-06T03:30:59Z
2017-10-06T01:31:10Z,42.805,6.029,13.2939,4.59962,2471.716,2017-10-06T03:32:34Z
2017-10-06T01:32:45Z,42.805,6.029,13.2943,4.59974,2471.731,2017-10-06T03:34:09Z
2017-10-06T01:34:20Z,42.805,6.029,13.2943,4.59967,2471.761,2017-10-06T03:35:44Z
2017-10-06T01:35:54Z,42.805,6.029,13.2950,4.59964,2471.753,2017-10-06T03:37:18Z
2017-10-06T01:37:29Z,42.805,6.029,13.2947,4.59978,2471.716,2017-10-06T03:38:53Z
2017-10-06T01:39:04Z,42.805,6.029,13.2942,4.59965,2471.693,2017-10-06T03:40:28Z
2017-10-06T01:40:39Z,42.805,6.029,13.2950,4.59967,2471.739,2017-10-06T03:42:03Z
2017-10-06T01:42:14Z,42.805,6.029,13.2948,4.59967,2471.739,2017-10-06T03:43:38Z
2017-10-06T01:43:49Z,42.805,6.029,13.2939,4.59964,2471.761,2017-10-06T03:45:13Z
2017-10-06T01:45:24Z,42.805,6.029,13.2943,4.59963,2471.716,2017-10-06T03:46:47Z
2017-10-06T01:46:58Z,42.805,6.029,13.2943,4.59962,2471.753,2017-10-06T03:48:22Z
2017-10-06T01:48:33Z,42.805,6.029,13.2951,4.59966,2471.753,2017-10-06T03:49:57Z
2017-10-06T01:50:08Z,42.805,6.029,13.2945,4.59964,2471.761,2017-10-06T03:51:32Z
2017-10-06T01:51:43Z,42.805,6.029,13.2946,4.59982,2471.753,2017-10-06T03:53:07Z
2017-10-06T01:53:18Z,42.805,6.029,13.2936,4.59965,2471.753,2017-10-06T03:54:41Z
2017-10-06T01:54:52Z,42.805,6.029,13.2940,4.59963,2471.716,2017-10-06T03:56:16Z
2017-10-06T01:56:27Z,42.805,6.029,13.2940,4.59975,2471.731,2017-10-06T03:57:51Z
2017-10-06T01:58:02Z,42.805,6.029,13.2948,4.59978,2471.731,2017-10-06T03:59:26Z
2017-10-06T01:59:37Z,42.805,6.029,13.2939,4.59974,2471.739,2017-10-06T04:01:01Z
2017-10-06T02:01:12Z,42.805,6.029,13.2935,4.59970,2471.753,2017-10-06T04:02:36Z
2017-10-06T02:02:47Z,42.805,6.029,13.2939,4.59974,2471.716,2017-10-06T04:04:10Z
2017-10-06T02:04:21Z,42.805,6.029,13.2939,4.59978,2471.731,2017-10-06T04:05:45Z
2017-10-06T02:05:56Z,42.805,6.029,13.2941,4.59964,2471.716,2017-10-06T04:07:20Z
2017-10-06T02:07:31Z,42.805,6.029,13.2942,4.59967,2471.753,2017-10-06T04:08:55Z
2017-10-06T02:09:06Z,42.805,6.029,13.2937,4.59961,2471.753,2017-10-06T04:10:30Z
2017-10-06T02:10:41Z,42.805,6.029,13.2943,4.59968,2471.739,2017-10-06T04:12:05Z
2017-10-06T02:12:16Z,42.805,6.029,13.2939,4.59967,2471.739,2017-10-06T04:13:39Z
2017-10-06T02:13:50Z,42.805,6.029,13.2940,4.59972,2471.776,2017-10-06T04:15:14Z
2017-10-06T02:15:25Z,42.805,6.029,13.2950,4.59964,2471.761,2017-10-06T04:16:49Z
2017-10-06T02:17:00Z,42.805,6.029,13.2949,4.59964,2471.739,2017-10-06T04:18:24Z
2017-10-06T02:18:35Z,42.805,6.029,13.2951,4.59964,2471.731,2017-10-06T04:19:59Z
2017-10-06T02:20:10Z,42.805,6.029,13.2946,4.59967,2471.753,2017-10-06T04:21:34Z
2017-10-06T02:21:45Z,42.805,6.029,13.2938,4.59969,2471.739,2017-10-06T04:23:08Z
2017-10-06T02:23:19Z,42.805,6.029,13.2945,4.59965,2471.739,2017-10-06T04:24:43Z
2017-10-06T02:24:54Z,42.805,6.029,13.2944,4.59969,2471.716,2017-10-06T04:26:18Z
2017-10-06T02:26:29Z,42.805,6.029,13.2943,4.59972,2471.776,2017-10-06T04:27:53Z
2017-10-06T02:28:04Z,42.805,6.029,13.2943,4.59962,2471.753,2017-10-06T04:29:28Z
2017-10-06T02:29:39Z,42.805,6.029,13.2946,4.59963,2471.731,2017-10-06T04:31:03Z
2017-10-06T02:31:14Z,42.805,6.029,13.2940,4.59964,2471.776,2017-10-06T04:32:37Z
2017-10-06T02:32:48Z,42.805,6.029,13.2943,4.59965,2471.739,2017-10-06T04:34:12Z
2017-10-06T02:34:23Z,42.805,6.029,13.2940,4.59963,2471.776,2017-10-06T04:35:47Z
2017-10-06T02:35:58Z,42.805,6.029,13.2940,4.59964,2471.776,2017-10-06T04:37:22Z
2017-10-06T02:37:33Z,42.805,6.029,13.2943,4.59963,2471.776,2017-10-06T04:38:57Z
2017-10-06T02:39:08Z,42.805,6.029,13.2948,4.59967,2471.739,2017-10-06T04:40:32Z
2017-10-06T02:40:43Z,42.805,6.029,13.2945,4.59965,2471.761,2017-10-06T04:42:06Z
2017-10-06T02:42:17Z,42.805,6.029,13.2945,4.59963,2471.776,2017-10-06T04:43:41Z
2017-10-06T02:43:52Z,42.805,6.029,13.2944,4.59965,2471.731,2017-10-06T04:45:16Z
2017-10-06T02:45:27Z,42.805,6.029,13.2941,4.59970,2471.731,2017-10-06T04:46:51Z
2017-10-06T02:47:02Z,42.805,6.029,13.2943,4.59962,2471.753,2017-10-06T04:48:26Z
2017-10-06T02:48:37Z,42.805,6.029,13.2940,4.59962,2471.731,2017-10-06T04:50:01Z
2017-10-06T02:50:12Z,42.805,6.029,13.2937,4.59962,2471.753,2017-10-06T04:51:35Z
2017-10-06T02:51:46Z,42.805,6.029,13.2945,4.59968,2471.753,2017-10-06T04:53:10Z
2017-10-06T02:53:21Z,42.805,6.029,13.2945,4.59970,2471.784,2017-10-06T04:54:45Z
2017-10-06T02:54:56Z,42.805,6.029,13.2942,4.59968,2471.753,2017-10-06T04:56:20Z
2017-10-06T02:56:31Z,42.805,6.029,13.2940,4.59966,2471.753,2017-10-06T04:57:55Z
2017-10-06T02:58:06Z,42.805,6.029,13.2939,4.59962,2471.753,2017-10-06T04:59:30Z
2017-10-06T02:59:41Z,42.805,6.029,13.2942,4.59963,2471.776,2017-10-06T05:01:04Z
2017-10-06T03:01:15Z,42.805,6.029,13.2939,4.59962,2471.776,2017-10-06T05:02:39Z
2017-10-06T03:02:50Z,42.805,6.029,13.2940,4.59964,2471.753,2017-10-06T05:04:14Z
2017-10-06T03:04:25Z,42.805,6.029,13.2942,4.59980,2471.753,2017-10-06T05:05:49Z
2017-10-06T03:06:00Z,42.805,6.029,13.2940,4.59966,2471.784,2017-10-06T05:07:24Z
2017-10-06T03:07:35Z,42.805,6.029,13.2939,4.59962,2471.753,2017-10-06T05:08:59Z
2017-10-06T03:09:10Z,42.805,6.029,13.2941,4.59965,2471.761,2017-10-06T05:10:33Z
2017-10-06T03:10:44Z,42.805,6.029,13.2939,4.59964,2471.776,2017-10-06T05:12:08Z
2017-10-06T03:12:19Z,42.805,6.029,13.2939,4.59962,2471.753,2017-10-06T05:13:43Z
2017-10-06T03:13:54Z,42.805,6.029,13.2936,4.59961,2471.739,2017-10-06T05:15:18Z
2017-10-06T03:15:29Z,42.805,6.029,13.2933,4.59961,2471.761,2017-10-06T05:16:53Z
2017-10-06T03:17:04Z,42.805,6.029,13.2939,4.59961,2471.761,2017-10-06T05:18:28Z
2017-10-06T03:18:38Z,42.805,6.029,13.2933,4.59960,2471.753,2017-10-06T05:20:02Z
2017-10-06T03:20:13Z,42.805,6.029,13.2937,4.59962,2471.776,2017-10-06T05:21:37Z
2017-10-06T03:21:48Z,42.805,6.029,13.2939,4.59965,2471.739,2017-10-06T05:23:12Z
2017-10-06T03:23:23Z,42.805,6.029,13.2939,4.59975,2471.761,2017-10-06T05:24:47Z
2017-10-06T03:24:58Z,42.805,6.029,13.2937,4.59964,2471.776,2017-10-06T05:26:22Z
2017-10-06T03:26:33Z,42.805,6.029,13.2938,4.59970,2471.761,2017-10-06T05:27:56Z
2017-10-06T03:28:07Z,42.805,6.029,13.2940,4.59964,2471.739,2017-10-06T05:29:31Z
2017-10-06T03:29:42Z,42.805,6.029,13.2942,4.59961,2471.761,2017-10-06T05:31:06Z
2017-10-06T03:31:17Z,42.805,6.029,13.2944,4.59962,2471.776,2017-10-06T05:32:41Z
2017-10-06T03:32:52Z,42.805,6.029,13.2951,4.59970,2471.753,2017-10-06T05:34:16Z
2017-10-06T03:34:27Z,42.805,6.029,13.2935,4.59983,2471.799,2017-10-06T05:35:51Z
2017-10-06T03:36:02Z,42.805,6.029,13.2938,4.59964,2471.776,2017-10-06T05:37:26Z
2017-10-06T03:37:36Z,42.805,6.029,13.2940,4.59965,2471.776,2017-10-06T05:39:00Z
2017-10-06T03:39:11Z,42.805,6.029,13.2939,4.59965,2471.776,2017-10-06T05:40:35Z
2017-10-06T03:40:46Z,42.805,6.029,13.2937,4.59964,2471.784,2017-10-06T05:42:10Z
2017-10-06T03:42:21Z,42.805,6.029,13.2938,4.59964,2471.761,2017-10-06T05:43:45Z
2017-10-06T03:43:56Z,42.805,6.029,13.2939,4.59961,2471.799,2017-10-06T05:45:20Z
2017-10-06T03:45:31Z,42.805,6.029,13.2937,4.59962,2471.784,2017-10-06T05:46:54Z
2017-10-06T03:47:05Z,42.805,6.029,13.2937,4.59967,2471.739,2017-10-06T05:48:29Z
2017-10-06T03:48:40Z,42.805,6.029,13.2943,4.59972,2471.799,2017-10-06T05:50:04Z
2017-10-06T03:50:15Z,42.805,6.029,13.2938,4.59972,2471.799,2017-10-06T05:51:39Z
2017-10-06T03:51:50Z,42.805,6.029,13.2937,4.59968,2471.799,2017-10-06T05:53:14Z
2017-10-06T03:53:25Z,42.805,6.029,13.2939,4.59961,2471.784,2017-10-06T05:54:49Z
2017-10-06T03:55:00Z,42.805,6.029,13.2938,4.59961,2471.821,2017-10-06T05:56:23Z
2017-10-06T03:56:34Z,42.805,6.029,13.2933,4.59961,2471.799,2017-10-06T05:57:58Z
2017-10-06T03:58:09Z,42.805,6.029,13.2939,4.59961,2471.806,2017-10-06T05:59:33Z
2017-10-06T03:59:44Z,42.805,6.029,13.2939,4.59964,2471.776,2017-10-06T06:01:08Z
2017-10-06T04:01:19Z,42.805,6.029,13.2939,4.59967,2471.799,2017-10-06T06:02:43Z
2017-10-06T04:02:54Z,42.805,6.029,13.2935,4.59967,2471.799,2017-10-06T06:04:18Z
2017-10-06T04:04:29Z,42.805,6.029,13.2936,4.59971,2471.799,2017-10-06T06:05:52Z
2017-10-06T04:06:03Z,42.805,6.029,13.2934,4.59961,2471.806,2017-10-06T06:07:27Z
2017-10-06T04:07:38Z,42.805,6.029,13.2938,4.59961,2471.821,2017-10-06T06:09:02Z
2017-10-06T04:09:13Z,42.805,6.029,13.2940,4.59962,2471.806,2017-10-06T06:10:37Z
2017-10-06T04:10:48Z,42.805,6.029,13.2941,4.59964,2471.799,2017-10-06T06:12:12Z
2017-10-06T04:12:23Z,42.805,6.029,13.2935,4.59961,2471.799,2017-10-06T06:13:47Z
2017-10-06T04:13:58Z,42.805,6.029,13.2943,4.59961,2471.784,2017-10-06T06:15:21Z
2017-10-06T04:15:32Z,42.805,6.029,13.2940,4.59961,2471.806,2017-10-06T06:16:56Z
2017-10-06T04:17:07Z,42.805,6.029,13.2952,4.59969,2471.829,2017-10-06T06:18:31Z
2017-10-06T04:18:42Z,42.805,6.029,13.2943,4.59963,2471.829,2017-10-06T06:20:06Z
2017-10-06T04:20:17Z,42.805,6.029,13.2948,4.59961,2471.821,2017-10-06T06:21:41Z
2017-10-06T04:21:52Z,42.805,6.029,13.2940,4.59965,2471.821,2017-10-06T06:23:16Z
2017-10-06T04:23:27Z,42.805,6.029,13.2940,4.59961,2471.844,2017-10-06T06:24:50Z
2017-10-06T04:25:01Z,42.805,6.029,13.2939,4.59963,2471.806,2017-10-06T06:26:25Z
2017-10-06T04:26:36Z,42.805,6.029,13.2935,4.59965,2471.844,2017-10-06T06:28:00Z
2017-10-06T04:28:11Z,42.805,6.029,13.2940,4.59963,2471.844,2017-10-06T06:29:35Z
2017-10-06T04:29:46Z,42.805,6.029,13.2936,4.59964,2471.844,2017-10-06T06:31:10Z
2017-10-06T04:31:21Z,42.805,6.029,13.2933,4.59972,2471.844,2017-10-06T06:32:45Z
2017-10-06T04:32:56Z,42.805,6.029,13.2938,4.59963,2471.829,2017-10-06T06:34:19Z
2017-10-06T04:34:30Z,42.805,6.029,13.2939,4.59964,2471.852,2017-10-06T06:35:54Z
2017-10-06T04:36:05Z,42.805,6.029,13.2937,4.59962,2471.806,2017-10-06T06:37:29Z
2017-10-06T04:37:40Z,42.805,6.029,13.2941,4.59969,2471.806,2017-10-06T06:39:04Z
2017-10-06T04:39:15Z,42.805,6.029,13.2938,4.59973,2471.844,2017-10-06T06:40:39Z
2017-10-06T04:40:50Z,42.805,6.029,13.2941,4.59964,2471.844,2017-10-06T06:42:14Z
2017-10-06T04:42:25Z,42.805,6.029,13.2939,4.59967,2471.866,2017-10-06T06:43:48Z
2017-10-06T04:43:59Z,42.805,6.029,13.2935,4.59964,2471.844,2017-10-06T06:45:23Z
2017-10-06T04:45:34Z,42.805,6.029,13.2941,4.59964,2471.852,2017-10-06T06:46:58Z
2017-10-06T04:47:09Z,42.805,6.029,13.2945,4.59970,2471.852,2017-10-06T06:48:33Z
2017-10-06T04:48:44Z,42.805,6.029,13.2945,4.59975,2471.844,2017-10-06T06:50:08Z
2017-10-06T04:50:19Z,42.805,6.029,13.2935,4.59964,2471.874,2017-10-06T06:51:43Z
2017-10-06T04:51:54Z,42.805,6.029,13.2944,4.59962,2471.829,2017-10-06T06:53:17Z
2017-10-06T04:53:28Z,42.805,6.029,13.2940,4.59962,2471.866,2017-10-06T06:54:52Z
2017-10-06T04:55:03Z,42.805,6.029,13.2939,4.59964,2471.889,2017-10-06T06:56:27Z
2017-10-06T04:56:38Z,42.805,6.029,13.2935,4.59963,2471.829,2017-10-06T06:58:02Z
2017-10-06T04:58:13Z,42.805,6.029,13.2943,4.59977,2471.889,2017-10-06T06:59:37Z
2017-10-06T04:59:48Z,42.805,6.029,13.2940,4.59963,2471.874,2017-10-06T07:01:12Z
2017-10-06T05:01:23Z,42.805,6.029,13.2936,4.59962,2471.852,2017-10-06T07:02:46Z
2017-10-06T05:02:57Z,42.805,6.029,13.2936,4.59962,2471.889,2017-10-06T07:04:21Z
2017-10-06T05:04:32Z,42.805,6.029,13.2935,4.59968,2471.852,2017-10-06T07:05:56Z
2017-10-06T05:06:07Z,42.805,6.029,13.2937,4.59966,2471.889,2017-10-06T07:07:31Z
2017-10-06T05:07:42Z,42.805,6.029,13.2940,4.59962,2471.866,2017-10-06T07:09:06Z
2017-10-06T05:09:17Z,42.805,6.029,13.2939,4.59963,2471.874,2017-10-06T07:10:41Z
2017-10-06T05:10:51Z,42.805,6.029,13.2936,4.59963,2471.874,2017-10-06T07:12:15Z
2017-10-06T05:12:26Z,42.805,6.029,13.2941,4.59964,2471.874,2017-10-06T07:13:50Z
2017-10-06T05:14:01Z,42.805,6.029,13.2943,4.59967,2471.889,2017-10-06T07:15:25Z
2017-10-06T05:15:36Z,42.805,6.029,13.2940,4.59968,2471.897,2017-10-06T07:17:00Z
2017-10-06T05:17:11Z,42.805,6.029,13.2943,4.59962,2471.912,2017-10-06T07:18:35Z
2017-10-06T05:18:46Z,42.805,6.029,13.2942,4.59977,2471.889,2017-10-06T07:20:10Z
2017-10-06T05:20:21Z,42.805,6.029,13.2946,4.59963,2471.874,2017-10-06T07:21:44Z
2017-10-06T05:21:55Z,42.805,6.029,13.2945,4.59965,2471.889,2017-10-06T07:23:19Z
2017-10-06T05:23:30Z,42.805,6.029,13.2951,4.59961,2471.889,2017-10-06T07:24:54Z
2017-10-06T05:25:05Z,42.805,6.029,13.2940,4.59962,2471.889,2017-10-06T07:26:29Z
2017-10-06T05:26:40Z,42.805,6.029,13.2938,4.59961,2471.897,2017-10-06T07:28:04Z
2017-10-06T05:28:15Z,42.805,6.029,13.2937,4.59964,2471.874,2017-10-06T07:29:39Z
2017-10-06T05:29:49Z,42.805,6.029,13.2940,4.59963,2471.897,2017-10-06T07:31:13Z
2017-10-06T05:31:24Z,42.805,6.029,13.2942,4.59963,2471.897,2017-10-06T07:32:48Z
2017-10-06T05:32:59Z,42.805,6.029,13.2938,4.59967,2471.889,2017-10-06T07:34:23Z
2017-10-06T05:34:34Z,42.805,6.029,13.2940,4.59964,2471.912,2017-10-06T07:35:58Z
2017-10-06T05:36:09Z,42.805,6.029,13.2940,4.59965,2471.874,2017-10-06T07:37:33Z
2017-10-06T05:37:44Z,42.805,6.029,13.2943,4.59962,2471.874,2017-10-06T07:39:07Z
2017-10-06T05:39:18Z,42.805,6.029,13.2943,4.59972,2471.919,2017-10-06T07:40:42Z
2017-10-06T05:40:53Z,42.805,6.029,13.2948,4.59964,2471.874,2017-10-06T07:42:17Z
2017-10-06T05:42:28Z,42.805,6.029,13.2943,4.59971,2471.919,2017-10-06T07:43:52Z
2017-10-06T05:44:03Z,42.805,6.029,13.2940,4.59961,2471.897,2017-10-06T07:45:27Z
2017-10-06T05:45:38Z,42.805,6.029,13.2938,4.59965,2471.874,2017-10-06T07:47:02Z
2017-10-06T05:47:13Z,42.805,6.029,13.2937,4.59961,2471.866,2017-10-06T07:48:37Z
2017-10-06T05:48:47Z,42.805,6.029,13.2938,4.59967,2471.912,2017-10-06T07:50:11Z
2017-10-06T05:50:22Z,42.805,6.029,13.2939,4.59964,2471.934,2017-10-06T07:51:46Z
2017-10-06T05:51:57Z,42.805,6.029,13.2940,4.59961,2471.934,2017-10-06T07:53:21Z
2017-10-06T05:53:32Z,42.805,6.029,13.2943,4.59962,2471.934,2017-10-06T07:54:56Z
2017-10-06T05:55:07Z,42.805,6.029,13.2946,4.59961,2471.897,2017-10-06T07:56:31Z
2017-10-06T05:56:42Z,42.805,6.029,13.2939,4.59961,2471.912,2017-10-06T07:58:05Z
2017-10-06T05:58:16Z,42.805,6.029,13.2940,4.59961,2471.934,2017-10-06T07:59:40Z
2017-10-06T05:59:51Z,42.805,6.029,13.2940,4.59961,2471.934,2017-10-06T08:01:15Z
2017-10-06T06:01:26Z,42.805,6.029,13.2940,4.59972,2471.919,2017-10-06T08:02:50Z
2017-10-06T06:03:01Z,42.805,6.029,13.2942,4.59961,2471.934,2017-10-06T08:04:25Z
2017-10-06T06:04:36Z,42.805,6.029,13.2943,4.59961,2471.912,2017-10-06T08:06:00Z
2017-10-06T06:06:11Z,42.805,6.029,13.2939,4.59962,2471.897,2017-10-06T08:07:34Z
2017-10-06T06:07:45Z,42.805,6.029,13.2941,4.59964,2471.897,2017-10-06T08:09:09Z
2017-10-06T06:09:20Z,42.805,6.029,13.2940,4.59964,2471.897,2017-10-06T08:10:44Z
2017-10-06T06:10:55Z,42.805,6.029,13.2936,4.59969,2471.934,2017-10-06T08:12:19Z
2017-10-06T06:12:30Z,42.805,6.029,13.2939,4.59963,2471.919,2017-10-06T08:13:54Z
2017-10-06T06:14:05Z,42.805,6.029,13.2939,4.59961,2471.934,2017-10-06T08:15:29Z
2017-10-06T06:15:40Z,42.805,6.029,13.2940,4.59961,2471.919,2017-10-06T08:17:03Z
2017-10-06T06:17:14Z,42.805,6.029,13.2939,4.59961,2471.919,2017-10-06T08:18:38Z
2017-10-06T06:18:49Z,42.805,6.029,13.2936,4.59964,2471.957,2017-10-06T08:20:13Z
2017-10-06T06:20:24Z,42.805,6.029,13.2939,4.59962,2471.934,2017-10-06T08:21:48Z
2017-10-06T06:21:59Z,42.805,6.029,13.2936,4.59960,2471.912,2017-10-06T08:23:23Z
2017-10-06T06:23:34Z,42.805,6.029,13.2938,4.59960,2471.934,2017-10-06T08:24:58Z
2017-10-06T06:25:09Z,42.805,6.029,13.2937,4.59961,2471.897,2017-10-06T08:26:32Z
2017-10-06T06:26:43Z,42.805,6.029,13.2935,4.59967,2471.979,2017-10-06T08:28:07Z
2017-10-06T06:28:18Z,42.805,6.029,13.2940,4.59961,2471.934,2017-10-06T08:29:42Z
2017-10-06T06:29:53Z,42.805,6.029,13.2940,4.59964,2471.934,2017-10-06T08:31:17Z
2017-10-06T06:31:28Z,42.805,6.029,13.2936,4.59963,2471.934,2017-10-06T08:32:52Z
2017-10-06T06:33:03Z,42.805,6.029,13.2933,4.59961,2471.957,2017-10-06T08:34:27Z
2017-10-06T06:34:38Z,42.805,6.029,13.2936,4.59962,2471.942,2017-10-06T08:36:01Z
2017-10-06T06:36:12Z,42.805,6.029,13.2934,4.59960,2471.934,2017-10-06T08:37:36Z
2017-10-06T06:37:47Z,42.805,6.029,13.2935,4.59961,2471.934,2017-10-06T08:39:11Z
2017-10-06T06:39:22Z,42.805,6.029,13.2939,4.59961,2471.934,2017-10-06T08:40:46Z
2017-10-06T06:40:57Z,42.805,6.029,13.2936,4.59961,2471.934,2017-10-06T08:42:21Z
2017-10-06T06:42:32Z,42.805,6.029,13.2939,4.59962,2471.957,2017-10-06T08:43:56Z
2017-10-06T06:44:07Z,42.805,6.029,13.2937,4.59967,2471.934,2017-10-06T08:45:30Z
2017-10-06T06:45:41Z,42.805,6.029,13.2938,4.59968,2471.897,2017-10-06T08:47:05Z
2017-10-06T06:47:16Z,42.805,6.029,13.2938,4.59964,2471.979,2017-10-06T08:48:40Z
2017-10-06T06:48:51Z,42.805,6.029,13.2936,4.59963,2471.957,2017-10-06T08:50:15Z
2017-10-06T06:50:26Z,42.805,6.029,13.2937,4.59967,2471.934,2017-10-06T08:51:50Z
2017-10-06T06:52:01Z,42.805,6.029,13.2940,4.59961,2471.964,2017-10-06T08:53:25Z
2017-10-06T06:53:36Z,42.805,6.029,13.2938,4.59961,2471.905,2017-10-06T08:54:59Z
2017-10-06T06:55:10Z,42.805,6.029,13.2945,4.59961,2471.934,2017-10-06T08:56:34Z
2017-10-06T06:56:45Z,42.805,6.029,13.2941,4.59962,2471.934,2017-10-06T08:58:09Z
2017-10-06T06:58:20Z,42.805,6.029,13.2939,4.59961,2471.942,2017-10-06T08:59:44Z
2017-10-06T06:59:55Z,42.805,6.029,13.2932,4.59963,2471.957,2017-10-06T09:01:19Z
2017-10-06T07:01:30Z,42.805,6.029,13.2942,4.59962,2471.942,2017-10-06T09:02:54Z
2017-10-06T07:03:04Z,42.805,6.029,13.2939,4.59972,2471.957,2017-10-06T09:04:28Z
2017-10-06T07:04:39Z,42.805,6.029,13.2939,4.59962,2471.957,2017-10-06T09:06:03Z
2017-10-06T07:06:14Z,42.805,6.029,13.2939,4.59963,2471.934,2017-10-06T09:07:38Z
2017-10-06T07:07:49Z,42.805,6.029,13.2935,4.59961,2471.934,2017-10-06T09:09:13Z
2017-10-06T07:09:24Z,42.805,6.029,13.2937,4.59962,2471.979,2017-10-06T09:10:48Z
2017-10-06T07:10:59Z,42.805,6.029,13.2937,4.59961,2471.971,2017-10-06T09:12:23Z
2017-10-06T07:12:33Z,42.805,6.029,13.2939,4.59962,2471.979,2017-10-06T09:13:57Z
2017-10-06T07:14:08Z,42.805,6.029,13.2935,4.59961,2471.934,2017-10-06T09:15:32Z
2017-10-06T07:15:43Z,42.805,6.029,13.2939,4.59969,2471.942,2017-10-06T09:17:07Z
2017-10-06T07:17:18Z,42.805,6.029,13.2943,4.59961,2471.942,2017-10-06T09:18:42Z
2017-10-06T07:18:53Z,42.805,6.029,13.2936,4.59964,2471.979,2017-10-06T09:20:17Z
2017-10-06T07:20:28Z,42.805,6.029,13.2935,4.59969,2471.964,2017-10-06T09:21:52Z
2017-10-06T07:22:02Z,42.805,6.029,13.2932,4.59967,2471.979,2017-10-06T09:23:26Z
2017-10-06T07:23:37Z,42.805,6.029,13.2938,4.59964,2471.957,2017-10-06T09:25:01Z
2017-10-06T07:25:12Z,42.805,6.029,13.2935,4.59961,2471.957,2017-10-06T09:26:36Z
2017-10-06T07:26:47Z,42.805,6.029,13.2939,4.59970,2471.964,2017-10-06T09:28:11Z
2017-10-06T07:28:22Z,42.805,6.029,13.2935,4.59961,2471.934,2017-10-06T09:29:46Z
2017-10-06T07:29:57Z,42.805,6.029,13.2936,4.59961,2471.919,2017-10-06T09:31:20Z
2017-10-06T07:31:31Z,42.805,6.029,13.2941,4.59967,2471.957,2017-10-06T09:32:55Z
2017-10-06T07:33:06Z,42.805,6.029,13.2942,4.59967,2471.957,2017-10-06T09:34:30Z
2017-10-06T07:34:41Z,42.805,6.029,13.2938,4.59963,2471.979,2017-10-06T09:36:05Z
2017-10-06T07:36:16Z,42.805,6.029,13.2939,4.59965,2471.942,2017-10-06T09:37:40Z
2017-10-06T07:37:51Z,42.805,6.029,13.2935,4.59966,2471.979,2017-10-06T09:39:15Z
2017-10-06T07:39:26Z,42.805,6.029,13.2935,4.59960,2471.957,2017-10-06T09:40:49Z
2017-10-06T07:41:00Z,42.805,6.029,13.2938,4.59961,2471.957,2017-10-06T09:42:24Z
2017-10-06T07:42:35Z,42.805,6.029,13.2937,4.59961,2471.942,2017-10-06T09:43:59Z
2017-10-06T07:44:10Z,42.805,6.029,13.2937,4.59966,2471.919,2017-10-06T09:45:34Z
2017-10-06T07:45:45Z,42.805,6.029,13.2937,4.59961,2471.957,2017-10-06T09:47:09Z